RH
66 68 69 70 72 71 71 71 69 72 74 76 76 78 76 81 83 83 82 72 68 73
70 73 73 70 70 72 72 66 68 70 73 75 76 76 79 83 84 82 82 80 71 74
77 75 75 74 76 76 76 76 77 78 78 78 78 78 80 83 81 83 82 77 77 77
82 80 78 81 79 80 80 80 81 80 79 79 79 78 81 82 82 84 83 79 79 74
83 82 86 84 84 81 85 81 81 81 83 81 80 80 83 83 78 80 82 79 77 76
84 86 87 87 84 84 87 88 84 80 85 84 81 82 81 82 82 80 82 80 78 77
83 84 86 85 84 84 86 91 88 84 85 84 82 78 81 78 80 78 80 78 77 73
71 77 81 83 86 88 89 90 91 92 88 86 83 78 81 79 81 81 82 79 76 77
70 69 79 84 88 88 89 89 92 94 94 92 80 80 78 77 94 84 79 81 77 76
71 79 79 78 83 90 92 92 93 94 95 94 89 86 84 77 85 94 89 80 80 80
76 85 77 78 82 87 90 93 96 95 95 96 89 86 82 76 85 95 90 86 85 85
82 89 84 88 87 92 95 93 95 96 96 96 93 88 84 77 93 92 88 86 85 86
82 91 91 89 94 92 92 95 94 95 96 96 96 92 92 88 94 94 86 82 82 81
80 86 87 94 91 95 94 94 94 96 94 97 97 97 96 97 97 94 87 84 81 79
Wind_Speed
12 8 9 10 9 9 10 10 12 10 11 11 11 10 9 8 8 10 8 12 11 9
11 12 11 14 12 10 12 11 13 12 11 12 12 12 10 8 10 10 9 10 11 9
13 13 13 12 14 14 13 14 14 13 12 12 12 12 11 10 10 10 8 9 10 8
13 13 13 13 13 14 14 14 14 14 13 13 13 12 12 12 12 12 11 11 11 12
14 14 13 13 15 14 15 14 14 14 13 13 13 13 13 13 12 12 12 11 11 11
14 13 14 14 15 15 14 15 15 14 14 14 14 13 13 14 13 13 12 12 11 10
15 14 14 15 15 15 15 15 15 15 14 14 14 14 14 14 14 14 12 12 12 11
16 16 15 15 16 16 15 15 15 15 14 14 13 11 13 14 15 14 13 13 12 12
16 16 16 16 16 16 16 15 15 14 14 14 11 20 24 20 12 14 14 13 12 12
16 17 17 17 16 16 16 15 15 14 13 13 13 22 23 24 12 10 11 13 11 11
17 17 17 17 17 16 14 14 13 13 11 11 11 21 22 22 12 10 12 13 12 12
17 17 18 17 17 14 13 13 11 11 10 10 11 19 21 18 9 9 11 11 12 12
16 16 17 17 15 13 13 13 11 12 9 13 12 18 20 17 8 10 10 12 13 23
16 16 15 14 13 11 13 12 12 11 11 9 9 10 18 18 9 9 9 10 10 10
Wind_Direction
294 292 289 285 284 284 286 284 283 277 270 268 268 265 268 269 269 264 266 277 272 275
296 291 288 288 286 284 282 280 280 281 280 274 271 269 266 262 264 261 264 269 270 267
295 292 287 288 286 284 282 281 280 278 273 269 266 266 264 262 261 261 260 262 261 269
295 293 290 288 286 284 283 280 277 274 272 268 265 262 263 259 260 261 261 259 259 258
295 295 292 288 287 285 280 277 274 272 268 265 262 260 258 260 260 261 262 263 260 260
297 296 292 288 288 286 282 276 273 270 267 264 261 258 256 257 257 255 256 258 255 256
303 300 295 292 290 287 283 277 271 267 263 260 258 258 254 254 256 255 252 253 253 253
304 302 298 296 293 287 282 277 270 266 260 256 253 251 249 250 252 252 250 249 249 247
306 305 304 301 296 291 286 280 274 264 258 257 252 258 262 261 241 239 244 248 246 242
309 308 306 304 301 296 291 288 280 270 257 253 251 259 265 265 259 253 248 252 251 249
313 309 307 307 305 303 299 294 289 279 259 251 251 260 265 265 257 246 245 245 243 244
314 309 309 309 311 308 312 309 307 296 265 252 255 262 268 268 260 252 250 244 242 240
311 309 308 309 317 318 317 312 314 309 295 267 269 267 269 262 243 243 244 245 243 250
311 310 309 311 318 323 321 322 319 329 322 306 291 278 285 276 254 240 244 244 250 245